AirNav   Air Wisconsin pilot careers
 
 796 users online  

A61 Tuntutuliak Airport
Tuntutuliak, Alaska, USA

GOING TO TUNTUTULIAK?


FAA INFORMATION EFFECTIVE 24 MAY 2018

Location

FAA Identifier: A61
Lat/Long: 60-21-05.8000N / 162-39-14.3000W
60-21.096667N / 162-39.238333W
60.3516111 / -162.6539722
(estimated)
Elevation: 16 ft. / 5 m (estimated)
Variation: 18E (1985)
From city: 1 mile NE of TUNTUTULIAK, AK
Time zone: UTC -8 (UTC -9 during Standard Time)
Zip code: 99680

Airport Operations

Airport use: Open to the public
Activation date: 08/1974
Control tower: no
ARTCC: ANCHORAGE CENTER
FSS: KENAI FLIGHT SERVICE STATION [907-283-8469]
NOTAMs facility: ENA (NOTAM-D service available)
Attendance: UNATNDD
Wind indicator: lighted
Segmented circle: yes
Lights: ACTVT MIRL RY 02/20 - 122.7.
Beacon: white-green (lighted land airport)
Operates sunset to sunrise.

Airport Communications

CTAF: 122.7

Nearby radio navigation aids

VOR radial/distance  VOR name  Freq  Var
BETr209/35.7BETHEL VORTAC114.1014E

 
NDB name  Hdg/Dist  Freq  Var  ID
OSCARVILLE210/35.025111EOSE --- ... .

Airport Services

Airframe service: NONE
Powerplant service: NONE

Runway Information

Runway 2/20

Dimensions: 3025 x 90 ft. / 922 x 27 m
Surface: gravel, in good condition
Runway edge lights: medium intensity
Runway edge markings: RY 02/20 NSTD MKGS: RY ENDS MKD WITH CONES & REFLECTIVE MARKERS.
RUNWAY 2  RUNWAY 20
Traffic pattern: leftleft
Markings: NSTDNSTD
Runway end identifier lights: yes
Obstructions: 6 ft. brush, 36 ft. from runway, 65 ft. right of centerline, 6:1 slope to clear3 ft. brush, 5 ft. from runway, 68 ft. right of centerline, 1:1 slope to clear

Airport Ownership and Management from official FAA records

Ownership: Publicly-owned
Owner: ALASKA DOT&PF CENTRAL REGION
PO BOX 196900
ANCHORAGE, AK 99519-6900
Phone (907) 269-0749
Manager: LAWERENCE DAVIS
PO BOX 505
BETHEL, AK 99559
Phone (907) 543-2498

Airport Operational Statistics

Aircraft operations: avg 83/month *
100% air taxi
* for 12-month period ending 31 December 2016

Additional Remarks

MULTIPLE UNLIT WIND GENERATORS NEAR RIVER UP TO 120'.
WINDSOCKS MAY BE UNRELIABLE
RY CONDITION NOT MONITORED; RECOMMEND VISUAL INSPECTION PRIOR TO USE.
WX CAMERA AVBL ON INTERNET AT HTTP://AVCAMS.FAA.GOV
BIRDS ON INVOF RY.

Instrument Procedures

There are no published instrument procedures at A61.

Some nearby airports with instrument procedures:

PAEE - Eek Airport (20 nm SE)
PANA - Napakiak Airport (28 nm NE)
PFKA - Kasigluk Airport (32 nm N)
PAPK - Napaskiak Airport (33 nm NE)
PABE - Bethel Airport (35 nm NE)
 
Loc | Ops | Rwys | IFR | FBO | Links
Com | Nav | Svcs | Stats | Notes

Crowley
 
Area around A61 (Tuntutuliak Airport)
 
Road maps at: MapQuest Bing Google
 
Aerial photo
No photo
 
Sectional chart

 
Airport distance calculator
Flying to Tuntutuliak Airport? Find the distance to fly.

From to A61

Sunrise and sunset
Times for 27-May-2018
 Local
(UTC-8)
 Zulu
(UTC)
Morning civil twilight04:2412:24
Sunrise05:4513:45
Sunset23:5107:51
Evening civil twilight01:1109:11

Current date and time
Zulu (UTC)  27-May-2018 13:24:09
Local (UTC-8)  27-May-2018 05:24:09
 
METAR
PANA 
28nm NE 
271256Z AUTO 29008KT 10SM OVC021 02/M02 A2995 RMK AO2 SLP140 T00221017 FZRANO
PPIT 
34nm N 
271256Z AUTO 33009KT 10SM -RA OVC020 02/M01 A2994 RMK AO2 RAB53 SLP139 P0000 T00221006 FZRANO TSNO
PABE 
36nm NE 
271253Z 32009KT 6SM -SN BR BKN021 OVC030 01/M01 A2995 RMK AO2 SNB40 SLP145 P0000 T00111006
PAQH 
43nm SE 
271256Z AUTO 30009KT 10SM FEW023 SCT031 OVC042 03/02 A2996 RMK AO2 SLP144 T00280017 PWINO $
PFKW 
44nm NE 
271256Z AUTO 33006KT 9SM -SN OVC017 02/M01 A2994 RMK AO2 RAB33E48SNB48 SLP138 P0000 T00171006 FZRANO
TAF
PABE 
36nm NE 
271141Z 2712/2812 30005KT P6SM BKN025 OVC035 FM271600 30008KT P6SM SCT015 OVC025 FM272200 29008KT P6SM FEW025 BKN050
NOTAMs
Click for the latest NOTAMs
NOTAMs are issued by the DoD/FAA and will open in a separate window not controlled by AirNav.

 

 
 

Would you like to see your business listed on this page?

 If your business provides an interesting product or service to pilots, flight crews, aircraft, or users of the Tuntutuliak Airport, you should consider listing it here.  To start the listing process, click on the button below
 
Add a business
 

Other Pages about Tuntutuliak Airport

Update a link
 
Copyright © AirNav, LLC. All rights reserved. Privacy Policy  Contact